Chatham, MA

11:43 PM EDT on May 24, 2017 (GMT -0400)
Chatham Municipal

Weather History for KCQX - October, 2010

Change the Weather History Date:

Sunday, October 31, 2010

  Actual Average Record
Temperature  
Mean Temperature 52 °F -  
Max Temperature 61 °F 54 °F 64 °F (1984)
Min Temperature 43 °F 41 °F 30 °F (2008)
Degree Days  
Heating Degree Days 14    
Growing Degree Days 2 (Base 50)    
Moisture  
Dew Point 37 °F    
Average Humidity 56    
Maximum Humidity 72    
Minimum Humidity 39    
Precipitation  
Precipitation 0.00 in - - ()
Sea Level Pressure  
Sea Level Pressure 29.78 in    
Wind  
Wind Speed 10 mph (WNW)    
Max Wind Speed 15 mph    
Max Gust Speed 29 mph    
Visibility 10 miles    
Events      
Averages and records for this station are not official NWS values.
T = Trace of Precipitation, MM = Missing Value Source: NWS Daily Summary

Daily Weather History Graph

Daily Weather History Graph

Search for Another Location

Airport or City:

Trip Planner

Search our weather history database for the weather conditions in past years. The results will help you decide how hot, cold, wet, or windy it might be!

Date:

Astronomy

Oct. 31, 2010 Rise Set
Actual Time 7:10 AM EDT 5:35 PM EDT
Civil Twilight 6:41 AM EDT 6:04 PM EDT
Nautical Twilight 6:09 AM EDT 6:37 PM EDT
Astronomical Twilight 5:36 AM EDT 7:09 PM EDT
Moon 12:27 AM EDT (10/31) 2:15 PM EDT (10/31)
Length of Visible Light 11h 22m
Length of Day
10h 25m
Last Quarter, 37% of the Moon is Illuminated
Oct 31
Last Quarter
Nov 6
New
Nov 13
First Quarter
Nov 21
Full
Nov 28
Last Quarter

Hourly Weather History & Observations

Time (EDT) Temp. Windchill Dew Point Humidity Pressure Visibility Wind Dir Wind Speed Gust Speed Precip Events Conditions
12:52 AM 55.9 °F - 46.9 °F 72% 29.75 in 10.0 mi SW 12.7 mph 23.0 mph N/A   Scattered Clouds
1:52 AM 57.0 °F - 46.9 °F 69% 29.73 in 10.0 mi SW 12.7 mph 28.8 mph N/A   Mostly Cloudy
2:52 AM 55.0 °F - 43.0 °F 64% 29.70 in 10.0 mi WSW 15.0 mph 25.3 mph N/A   Clear
3:52 AM 55.9 °F - 45.0 °F 67% 29.69 in 10.0 mi WSW 12.7 mph 20.7 mph N/A   Clear
4:52 AM 55.0 °F - 43.0 °F 64% 29.68 in 10.0 mi WSW 8.1 mph 19.6 mph N/A   Mostly Cloudy
5:52 AM 54.0 °F - 44.1 °F 69% 29.69 in 10.0 mi WSW 8.1 mph - N/A   Overcast
6:52 AM 53.1 °F - 43.0 °F 69% 29.68 in 10.0 mi Variable 6.9 mph - N/A   Scattered Clouds
7:52 AM 53.1 °F - 42.1 °F 66% 29.68 in 10.0 mi Variable 5.8 mph - N/A   Partly Cloudy
8:52 AM 53.1 °F - 39.9 °F 61% 29.69 in 10.0 mi Variable 5.8 mph - N/A   Scattered Clouds
9:52 AM 57.9 °F - 39.0 °F 49% 29.69 in 10.0 mi Variable 6.9 mph 17.3 mph N/A   Clear
10:52 AM 60.1 °F - 35.1 °F 39% 29.69 in 10.0 mi West 10.4 mph 23.0 mph N/A   Overcast
11:52 AM 59.0 °F - 37.0 °F 44% 29.70 in 10.0 mi WNW 9.2 mph - N/A   Overcast
12:52 PM 55.9 °F - 35.1 °F 45% 29.70 in 10.0 mi Variable 5.8 mph 16.1 mph N/A   Overcast
1:52 PM 57.0 °F - 37.0 °F 47% 29.70 in 10.0 mi WNW 5.8 mph - N/A   Overcast
2:52 PM 54.0 °F - 36.0 °F 51% 29.73 in 10.0 mi NNW 11.5 mph 19.6 mph N/A   Partly Cloudy
3:52 PM 53.1 °F - 37.0 °F 55% 29.77 in 10.0 mi North 10.4 mph 16.1 mph N/A   Scattered Clouds
4:52 PM 50.0 °F - 34.0 °F 54% 29.81 in 10.0 mi North 11.5 mph 21.9 mph N/A   Mostly Cloudy
5:52 PM 48.0 °F - 33.1 °F 56% 29.85 in 10.0 mi North 9.2 mph 19.6 mph N/A   Mostly Cloudy
6:52 PM 46.9 °F - 32.0 °F 56% 29.90 in 10.0 mi Variable 6.9 mph - N/A   Partly Cloudy
7:52 PM 46.0 °F 42.5 °F 28.9 °F 51% 29.94 in 10.0 mi Variable 6.9 mph 19.6 mph N/A   Overcast
8:52 PM 44.1 °F 39.0 °F 28.0 °F 53% 29.98 in 10.0 mi NNW 9.2 mph 19.6 mph N/A   Clear
9:52 PM 43.0 °F 37.2 °F 26.1 °F 51% 30.00 in 10.0 mi NW 10.4 mph - N/A   Partly Cloudy
10:52 PM 43.0 °F 38.8 °F 25.0 °F 49% 30.03 in 10.0 mi Variable 6.9 mph 17.3 mph N/A   Overcast
11:52 PM 43.0 °F 38.2 °F 26.1 °F 51% 30.04 in 10.0 mi NW 8.1 mph 24.2 mph N/A   Overcast